Wind_Speed
6 11 14 16 15 15 13 13 8 10 16 8 7 10 9 9 9 12 15 16 15 14 12 17 20 21 24 25 28 25 18 14 23 26 25 23 22 19 17 17 13 11 11 11
14 12 14 16 16 17 15 15 15 17 11 4 12 11 11 10 10 12 13 14 14 14 15 17 21 20 21 25 28 26 24 23 19 22 23 24 25 23 22 17 14 13 12 10
8 6 12 11 9 15 13 7 9 10 3 8 7 13 12 10 11 11 12 12 13 13 14 18 22 22 21 21 25 30 26 25 24 23 21 19 22 24 24 20 17 16 15 15
4 7 4 1 16 10 11 8 3 10 5 9 11 12 10 11 9 10 10 9 9 10 15 18 23 27 22 21 24 24 26 26 27 27 25 23 24 24 24 23 22 21 20 18
2 3 11 8 7 5 2 6 7 8 3 9 12 10 11 9 9 8 8 8 12 15 14 18 24 25 24 24 22 25 23 22 26 27 27 27 27 27 23 26 26 25 24 21
2 3 3 3 12 11 3 3 7 5 4 0 10 1 2 6 7 7 11 12 13 15 17 21 22 23 23 24 24 25 23 23 27 29 27 31 25 25 27 29 29 27 31 27
5 4 3 12 18 11 3 3 7 8 11 8 5 5 5 4 6 11 13 14 15 15 18 19 23 24 22 22 22 23 24 25 28 29 27 28 28 24 29 27 32 32 32 32
4 1 2 18 6 6 4 7 9 11 10 13 11 10 8 8 7 9 12 17 19 19 20 20 19 19 20 20 19 21 23 24 27 27 28 26 28 26 21 25 22 25 26 29
5 3 4 4 6 8 8 9 9 10 8 9 9 7 8 8 9 11 15 14 16 16 17 22 22 20 17 16 16 20 23 24 25 25 26 24 27 25 19 22 20 17 18 21
2 4 8 9 7 10 9 10 11 10 9 9 9 7 8 7 8 11 15 16 15 16 18 19 22 22 18 17 15 16 19 21 23 26 25 25 25 22 21 20 18 16 18 20
3 6 6 9 9 7 9 10 12 12 11 9 9 8 8 8 8 12 15 17 17 15 16 18 21 22 19 13 15 17 16 16 18 21 24 27 29 25 25 21 19 18 20 22
1 6 4 4 6 8 8 10 8 11 12 11 11 8 9 7 12 13 14 16 16 17 18 19 21 21 19 16 15 14 13 15 16 17 17 19 21 25 25 23 21 20 20 22
2 5 8 7 8 8 9 9 9 9 10 11 15 15 12 10 13 15 15 15 17 17 18 20 20 20 18 16 13 14 14 12 10 15 15 15 14 16 19 22 22 21 19 16
2 5 4 1 4 5 11 15 15 14 14 15 15 14 12 11 13 13 14 13 14 16 18 18 19 18 16 14 13 15 15 14 15 14 12 17 19 19 19 17 17 17 18 17
4 3 5 5 6 8 14 13 9 9 11 14 15 11 11 11 12 12 11 11 12 15 15 16 18 16 12 12 12 12 13 13 12 12 12 14 16 17 16 15 15 15 17 17
4 4 11 11 10 10 9 8 9 8 9 11 12 9 10 10 11 13 13 11 12 14 15 15 16 16 11 10 12 11 12 10 10 10 11 14 15 14 12 12 13 13 14 13
5 7 9 8 9 9 9 9 9 9 10 11 10 9 10 11 12 14 14 13 13 14 14 15 15 12 11 9 7 8 8 9 9 11 12 12 12 12 13 16 16 16 15 11
10 8 10 10 9 9 8 10 9 9 9 10 12 12 12 12 9 9 9 9 7 10 13 12 11 10 11 10 9 6 6 6 7 10 12 12 12 13 14 15 14 15 14 12
14 14 15 15 13 13 11 11 11 12 11 11 12 14 11 10 9 7 4 2 8 9 11 10 9 7 10 9 8 7 7 6 6 9 10 10 11 11 12 12 11 9 8 8
12 14 15 14 14 15 14 14 14 13 12 11 11 10 9 8 6 7 6 6 7 6 6 9 9 7 8 7 7 5 6 7 7 8 6 8 9 10 10 11 10 8 7 6
11 15 16 17 17 15 14 12 12 11 8 6 7 7 5 3 2 2 2 3 3 6 5 8 11 5 6 6 6 5 5 5 6 6 8 8 8 9 8 8 8 7 7 4
16 15 16 16 15 13 10 9 9 9 8 8 6 4 2 2 4 4 2 3 3 4 4 8 8 3 4 4 5 4 5 4 5 5 6 6 7 8 8 8 7 5 5 5
17 15 15 14 14 12 10 8 8 9 9 6 5 4 3 3 3 7 4 3 4 4 2 4 8 2 2 2 5 5 3 4 4 3 3 2 1 1 2 3 3 3 4 4
15 13 13 12 12 10 7 8 8 7 6 6 5 7 6 6 6 5 3 2 3 2 3 3 5 2 1 2 2 5 4 3 3 4 6 6 3 2 2 2 3 3 3 4
13 12 13 13 8 9 8 10 10 9 9 10 9 8 8 7 3 3 4 3 3 3 2 2 3 1 2 5 5 5 5 5 5 5 4 4 5 5 6 6 7 7 8 7
11 12 13 11 9 11 12 6 7 11 12 11 12 14 12 11 6 4 4 5 6 6 7 6 6 7 8 6 6 7 9 7 7 8 7 8 7 7 8 8 8 8 9 9
10 9 9 6 10 9 9 7 5 6 3 2 3 2 7 15 8 7 8 9 9 9 9 10 11 11 10 10 10 10 9 7 8 8 9 9 10 11 10 7 9 10 10 10
Wind_Direction
282 280 282 276 281 276 260 265 258 302 305 1 109 95 71 55 42 25 17 19 19 16 12 10 10 14 15 16 22 26 47 65 103 127 134 139 141 144 144 147 144 148 161 163
297 290 273 270 281 258 259 262 265 279 261 57 49 58 53 36 38 36 23 15 12 16 14 10 6 7 20 18 25 35 35 46 69 112 124 131 136 135 132 132 132 133 126 128
270 292 311 279 246 229 242 287 274 246 121 156 104 63 27 24 34 37 29 18 10 14 21 16 5 3 11 25 39 41 43 43 52 68 84 94 123 126 121 120 120 110 109 113
286 311 255 32 26 47 57 36 13 79 89 96 95 84 56 30 30 34 32 22 15 10 20 22 23 13 18 25 45 49 45 47 51 55 59 67 80 88 106 114 109 101 97 96
226 227 297 305 36 25 318 58 15 56 63 118 127 107 55 36 38 33 28 25 25 21 24 34 36 33 27 29 36 47 47 49 62 73 66 64 66 75 74 86 88 88 89 87
192 271 272 337 334 336 190 111 12 49 2 236 168 130 45 36 44 39 43 32 37 29 34 36 34 49 39 38 36 38 39 53 72 80 81 81 76 75 82 81 76 75 80 80
215 237 281 355 328 315 157 80 58 67 40 61 82 71 104 89 67 58 49 47 43 41 39 38 42 46 43 40 38 49 53 60 76 77 75 85 84 78 85 81 87 79 74 74
207 178 270 0 357 41 37 75 79 77 84 92 89 85 70 57 60 63 56 43 40 43 31 32 42 46 45 43 56 67 74 74 71 80 82 81 81 81 75 86 81 82 81 77
28 72 35 15 39 39 36 76 87 93 84 93 92 66 53 52 42 40 52 54 50 48 42 36 38 45 46 44 55 70 72 72 80 84 87 88 84 81 77 80 77 74 79 80
145 50 52 38 60 47 56 77 77 82 92 88 90 78 64 50 44 48 46 44 44 46 42 32 39 49 55 48 51 62 67 68 71 77 80 83 84 87 84 77 79 77 78 77
87 135 123 57 33 64 72 68 76 74 83 81 78 62 72 64 51 51 55 50 45 42 43 35 43 49 56 61 63 63 65 69 71 72 74 72 70 70 75 78 93 86 88 94
18 336 95 64 61 46 70 86 89 90 87 81 87 77 66 67 68 63 58 57 52 46 45 45 53 53 55 66 78 76 76 74 79 80 79 81 83 78 72 78 80 87 92 91
103 63 95 91 87 76 82 79 75 82 91 93 80 83 70 72 73 75 65 58 54 52 54 58 59 56 55 59 72 81 78 77 91 87 94 92 91 90 89 80 77 76 77 79
41 131 84 341 116 115 102 89 85 89 91 88 92 84 80 74 80 72 65 61 61 65 60 58 55 49 52 60 67 76 82 85 91 101 113 105 101 103 105 98 89 82 83 79
67 66 110 120 135 114 109 104 93 90 90 87 84 86 90 84 74 66 68 67 67 63 56 52 47 39 53 63 71 80 80 82 85 89 99 114 120 114 108 105 100 100 102 95
142 118 107 99 88 116 108 99 100 97 92 89 93 93 90 89 82 74 69 69 71 51 47 46 44 33 45 70 72 78 82 91 96 103 109 116 120 118 116 118 106 108 114 105
141 128 117 108 102 94 93 92 97 101 96 100 101 103 97 91 85 80 76 76 72 60 46 42 37 33 47 72 74 71 86 89 99 106 114 127 125 115 111 117 105 104 115 107
79 70 106 119 120 113 100 94 94 95 93 105 114 108 101 95 92 97 94 71 66 66 49 45 35 39 55 76 74 86 83 85 89 107 115 116 131 132 127 125 122 114 114 114
83 89 95 100 107 108 107 103 104 111 117 122 115 103 99 91 86 67 171 50 61 58 32 30 20 28 49 62 65 85 120 104 104 108 114 119 122 137 144 142 137 129 125 123
91 94 98 98 111 118 115 120 119 113 115 119 121 122 112 98 88 89 84 76 64 28 7 15 4 18 45 59 61 80 98 101 110 118 130 126 142 139 137 143 149 145 137 128
107 111 110 110 109 115 119 129 128 128 129 122 111 105 104 105 66 280 200 41 15 1 334 351 358 17 47 60 57 61 79 100 108 113 129 142 141 139 139 144 150 154 157 160
128 123 124 125 122 121 127 132 132 133 136 129 120 111 108 109 109 99 139 241 327 346 340 352 2 18 33 38 31 32 52 66 85 94 102 119 139 147 149 156 161 162 170 178
142 141 139 140 142 138 140 143 143 150 155 163 166 142 147 133 193 188 178 229 299 313 319 7 4 4 15 7 18 5 17 27 38 63 73 60 75 148 171 189 201 213 201 184
149 156 156 149 147 146 162 178 180 188 192 188 192 195 171 185 194 224 223 265 292 318 300 297 4 5 350 311 355 340 329 326 335 337 329 318 293 246 277 292 280 273 271 279
161 158 159 163 181 209 213 204 204 217 222 227 229 221 214 215 262 228 228 236 237 275 303 262 271 283 283 266 268 279 269 289 290 294 295 315 258 273 274 270 266 269 276 274
167 178 187 202 233 227 228 196 211 240 237 250 261 243 234 226 242 247 240 257 253 263 268 273 267 265 264 260 263 284 289 280 269 269 272 267 276 282 285 268 255 257 261 257
190 217 224 183 156 134 146 152 139 133 116 50 29 330 264 233 235 258 262 265 268 259 269 268 265 267 267 263 266 270 276 271 265 267 266 269 266 267 272 270 265 270 265 260
Height
766 762 756 752 749 741 738 738 743 721 721 716 713 718 724 727 729 730 730 729 728 726 722 718 713 708 704 698 690 685 681 680 678 684 690 696 699 705 710 713 717 718 719 720
765 758 751 748 740 733 725 720 716 720 712 735 731 731 734 737 737 737 738 737 736 733 727 721 718 716 710 705 699 695 692 688 688 688 692 696 698 704 707 714 718 719 721 722
766 752 751 745 725 718 713 711 713 714 717 732 737 742 749 748 746 746 746 747 744 739 735 731 727 722 717 713 708 704 702 700 699 697 699 702 703 706 708 715 720 722 724 725
766 758 763 723 725 714 725 729 728 727 729 736 745 751 758 758 756 754 753 753 751 748 742 739 733 729 725 722 717 715 713 712 708 708 709 711 712 714 715 718 722 726 728 730
770 757 733 717 732 741 743 739 743 738 736 744 750 750 761 764 762 761 759 758 756 753 749 743 739 739 734 731 728 724 724 722 718 718 720 720 719 721 727 726 728 731 732 736
756 752 757 742 743 741 742 735 752 749 751 744 747 738 766 767 766 765 762 761 760 757 753 749 747 745 744 742 740 735 734 731 728 727 729 723 731 732 733 734 735 739 737 741
756 752 742 754 747 738 721 752 758 760 757 750 757 763 770 771 770 769 768 766 763 761 759 758 755 753 752 750 749 747 744 742 737 735 734 735 735 743 741 743 742 744 747 749
742 744 744 759 746 744 755 760 762 763 768 768 770 773 775 775 774 774 772 771 769 767 768 765 763 761 760 760 759 755 751 752 746 745 742 744 742 745 753 747 755 753 754 754
756 765 770 772 769 768 766 764 768 768 772 774 776 780 781 781 780 779 778 778 776 775 775 772 769 768 767 767 766 763 761 758 756 755 754 757 752 754 763 759 758 762 760 761
763 774 773 772 773 774 775 775 775 777 780 780 783 785 786 786 785 784 784 783 783 781 779 778 776 773 772 773 771 769 769 766 765 762 763 763 762 765 767 765 765 769 767 768
773 776 778 779 780 779 780 780 779 779 780 783 785 788 788 790 791 791 789 788 789 788 786 784 782 780 779 779 779 777 776 775 774 772 771 770 771 772 772 772 772 775 775 773
784 780 781 784 785 783 782 784 786 785 787 790 790 794 796 796 796 795 795 794 794 794 791 789 787 786 784 783 783 782 783 782 780 779 779 777 778 779 779 779 780 782 785 782
787 785 785 787 788 788 789 791 793 793 794 792 793 795 801 801 801 800 800 800 798 797 796 794 793 791 790 789 788 787 787 786 786 785 785 785 785 784 784 786 787 789 790 790
783 785 787 787 789 790 792 793 794 795 795 795 799 802 804 807 805 805 804 804 802 801 801 799 798 797 796 795 793 791 791 791 790 790 789 789 789 790 790 791 793 796 796 796
787 785 785 788 790 793 796 798 800 801 801 803 804 808 809 810 809 809 808 807 806 806 805 804 803 802 801 800 798 797 795 794 794 794 793 792 793 794 796 797 798 798 800 800
789 789 791 795 794 797 800 802 803 805 806 807 810 813 813 813 812 812 811 810 810 810 810 809 807 806 804 803 802 800 799 799 798 797 797 797 798 798 800 801 802 802 803 803
789 792 796 799 801 803 805 807 808 809 811 811 814 815 815 815 815 815 815 815 815 814 813 812 811 810 807 805 804 804 803 803 802 801 801 801 802 802 803 803 804 805 806 807
794 796 797 800 804 807 810 811 813 813 814 815 816 816 816 816 817 818 818 818 817 816 815 815 814 812 810 808 807 806 805 805 804 803 803 803 804 805 805 806 807 807 808 808
801 801 803 805 808 809 812 814 814 815 817 817 818 818 819 819 820 820 820 820 820 819 819 818 816 814 813 811 810 809 808 807 807 806 806 806 806 807 807 808 809 810 810 810
806 806 807 809 810 811 813 815 816 817 818 818 819 820 821 822 822 823 823 822 822 822 821 820 818 816 815 814 812 811 810 810 809 809 809 809 810 810 810 811 811 812 813 813
807 808 810 811 813 814 816 817 818 818 820 820 821 822 823 823 824 823 824 823 823 822 821 820 819 817 816 815 815 814 813 812 811 811 811 811 811 811 811 812 812 812 813 813
809 811 813 814 815 817 818 819 820 821 822 822 823 823 824 824 824 824 824 824 823 822 822 820 818 818 817 816 815 815 814 813 813 813 812 812 812 812 812 812 812 812 812 813
812 814 815 817 818 819 821 822 822 823 823 824 824 824 824 824 824 824 824 824 823 822 822 821 819 818 818 817 816 815 814 814 813 813 813 812 812 812 812 812 812 812 812 812
814 815 817 818 820 821 822 822 823 824 824 824 824 825 825 824 824 824 824 823 823 822 821 821 820 819 818 818 817 816 815 815 814 813 813 812 811 811 811 811 811 811 811 811
814 816 818 819 821 821 821 822 823 823 824 824 824 824 824 824 824 823 823 822 822 822 821 820 820 819 818 818 817 816 816 815 814 813 813 812 811 811 810 810 810 810 809 809
815 816 817 818 818 818 819 821 822 821 822 822 821 821 822 822 822 821 821 821 821 820 820 819 818 817 817 816 815 814 814 813 812 812 812 811 811 810 809 808 808 808 808 808
815 816 817 818 819 819 820 821 821 821 822 821 821 820 820 820 820 820 820 819 818 818 817 816 815 815 814 813 813 812 811 810 810 809 809 808 807 807 806 806 805 805 805 805